Probability
8 9 11 12 12 11 9 7 6 6 5 4 3 2 3 3 4 5 5 7 9 10 9 7 5 2 0 0 1 0 0 0 0 0 0 0 1 1 2 3 3 3 3
11 12 12 12 13 12 10 8 7 6 6 6 6 4 4 4 4 6 5 6 8 9 10 9 6 3 1 2 2 1 0 0 0 1 1 1 2 1 2 3 3 3 3
15 15 14 13 12 11 10 10 8 6 6 6 7 7 7 5 5 6 6 6 6 8 10 10 7 4 3 3 3 2 1 0 1 2 3 3 3 3 3 3 3 3 3
18 16 15 14 12 10 10 11 10 8 6 6 7 7 7 6 5 7 7 8 8 8 9 8 7 5 4 3 3 2 1 1 3 4 3 3 3 3 3 3 3 3 3
20 17 16 17 13 11 13 12 10 9 9 8 6 5 6 6 7 7 7 8 10 9 7 6 6 4 3 3 2 1 1 2 3 3 1 1 3 3 3 3 3 3 3
20 17 17 18 16 15 15 14 11 10 10 10 7 5 5 6 8 8 6 6 9 10 9 7 5 3 3 3 3 3 3 4 4 2 1 1 2 3 3 3 3 3 3
18 16 16 18 18 18 17 14 11 10 10 9 7 6 5 6 7 9 8 8 9 11 12 10 7 6 4 4 5 5 6 7 6 4 2 1 2 3 3 3 3 2 1
19 18 19 20 19 19 16 13 11 10 9 7 6 5 5 5 6 7 8 9 10 12 11 10 10 10 8 7 6 6 7 9 9 8 5 3 2 3 3 3 3 1 0
22 21 21 20 19 19 16 12 10 9 8 7 6 5 4 5 5 7 9 9 10 10 8 7 8 10 10 9 7 5 6 8 10 11 10 7 4 3 3 3 3 1 0
22 22 22 20 18 17 15 11 9 8 7 6 6 5 5 5 6 7 9 9 9 9 7 5 6 9 9 9 8 6 5 5 8 12 14 12 7 4 4 3 3 2 1
26 25 23 21 18 15 14 11 10 8 7 5 5 6 6 7 7 8 9 9 8 9 9 8 7 8 8 8 9 7 4 4 6 9 12 12 9 6 4 3 3 1 0
34 30 27 24 19 15 14 14 13 12 10 7 6 6 7 8 8 8 8 8 8 9 10 10 10 9 8 9 8 5 4 3 4 5 7 7 7 5 4 4 3 1 0
40 35 32 28 20 14 13 14 15 15 14 11 8 7 8 8 8 7 8 8 8 8 9 10 10 10 9 8 6 4 3 3 3 2 2 3 3 3 4 5 4 1 0
40 38 34 28 19 13 11 11 12 14 15 14 11 10 9 8 7 7 8 8 7 7 8 9 11 11 11 8 5 4 4 3 2 1 0 1 1 1 3 4 4 1 0
37 36 32 25 19 14 10 9 8 9 12 13 13 13 12 9 8 8 9 9 7 7 7 9 11 13 13 9 5 4 5 4 2 0 0 0 0 0 1 1 1 0 0
35 33 28 24 20 16 12 10 8 8 10 11 12 14 14 13 11 11 11 10 8 7 7 8 9 12 12 9 6 6 6 5 3 1 1 0 0 0 0 0 0 0 0
33 31 28 25 22 19 16 12 9 9 10 10 12 14 15 14 12 12 11 10 9 8 7 7 7 9 11 10 8 7 7 6 5 3 1 0 0 0 0 0 0 0 0
33 30 27 24 22 20 17 13 10 10 10 10 11 13 14 13 12 11 11 10 9 9 8 7 7 7 8 9 9 9 8 7 6 3 1 0 0 0 0 0 0 0 0
32 29 26 24 21 19 16 12 10 10 10 10 10 11 13 13 12 12 12 12 11 10 8 7 6 6 6 7 8 9 8 8 7 4 1 0 0 0 0 0 0 0 0
29 27 24 22 19 16 13 10 10 10 10 11 11 12 13 14 13 13 13 13 12 10 8 8 7 6 6 7 7 7 7 8 8 6 4 2 1 0 0 0 0 0 0
25 23 21 19 14 10 8 7 9 10 10 11 12 13 14 14 13 12 12 12 11 9 8 8 9 9 9 9 8 8 8 8 8 9 7 5 2 0 0 0 0 0 0
24 21 18 15 11 7 4 4 6 8 9 11 13 14 13 12 12 10 9 8 7 6 7 9 11 12 13 13 11 10 9 9 9 10 9 6 2 0 0 0 0 0 0
22 19 16 15 11 7 4 2 3 5 8 10 13 14 13 11 10 9 7 5 4 4 6 8 10 12 12 12 12 10 9 9 9 10 8 5 3 1 0 0 0 0 0
21 19 17 15 13 10 6 3 3 5 8 11 12 13 13 11 9 9 8 6 4 4 5 6 8 8 9 9 9 9 8 7 7 7 6 5 4 2 0 0 0 0 0
24 22 18 16 14 12 8 4 4 7 10 11 12 12 11 10 7 7 8 7 7 7 7 6 6 6 6 6 6 8 7 5 4 4 4 5 5 2 0 0 0 0 0
24 23 19 17 15 13 10 5 4 8 12 12 11 10 9 8 6 5 6 7 8 9 8 6 5 4 4 4 4 6 7 5 4 3 4 5 4 2 0 0 0 0 0
Wind_Speed
1 1 1 0 0 0 1 1 1 1 1 1 1 1 2 2 3 3 3 8 9 9 8 9 8 7 8 8 8 7 7 7 8 7 7 7 7 8 8 8 7 7 7
2 1 1 1 0 1 1 0 1 1 0 0 0 0 1 1 2 4 4 6 9 9 8 9 9 8 8 9 9 8 8 7 8 8 8 7 8 8 8 8 8 7 7
2 1 1 1 0 1 1 0 0 0 1 0 0 0 1 1 2 3 4 3 4 8 9 9 9 8 9 10 10 9 8 8 9 9 8 8 8 8 9 9 8 8 7
2 1 1 1 1 1 1 1 1 0 0 0 0 1 1 1 2 2 3 3 3 4 6 9 9 8 9 10 10 9 9 9 9 10 10 9 9 9 9 9 9 8 8
2 1 1 0 1 1 0 0 2 0 0 0 1 1 1 1 2 2 2 3 3 4 4 7 9 9 9 10 9 9 9 9 10 10 11 11 10 9 9 10 9 9 8
2 1 2 1 0 1 1 1 1 0 1 1 2 1 2 2 2 2 2 2 3 4 5 5 5 6 8 8 9 9 9 9 9 9 10 11 11 10 10 10 9 9 9
2 1 1 1 0 1 1 1 0 1 1 1 1 1 1 2 2 2 1 1 2 3 3 5 4 3 4 8 9 9 9 9 8 9 9 10 10 10 11 11 10 9 9
1 2 1 0 1 1 0 0 0 1 1 1 1 1 1 0 0 2 2 2 2 2 2 4 4 4 4 3 6 10 9 8 7 7 7 7 9 11 11 11 11 10 9
2 1 1 0 0 1 1 1 1 1 1 1 1 0 0 1 1 1 1 1 1 1 1 1 2 2 3 3 3 6 9 8 7 8 7 7 8 9 11 12 11 11 10
3 3 2 1 0 0 0 1 0 1 2 2 1 1 0 0 1 1 0 1 1 2 1 1 1 2 2 2 3 4 6 7 6 6 7 7 8 9 9 11 12 12 12
3 3 3 1 1 0 0 1 1 1 1 2 1 1 1 1 1 1 1 0 0 1 1 1 1 1 2 2 2 3 5 6 6 5 5 6 7 7 8 9 10 11 12
2 2 3 2 1 1 1 1 1 1 1 2 2 0 0 1 1 0 1 1 1 1 1 1 1 1 2 2 3 5 6 6 6 5 5 6 6 6 7 8 9 11 11
2 2 2 2 1 1 1 1 1 1 1 2 2 1 1 1 1 1 1 1 1 1 1 1 1 1 1 2 3 5 6 7 6 6 6 6 6 6 6 7 8 9 10
2 3 2 2 1 1 1 1 1 1 1 1 2 1 1 1 1 1 1 1 1 1 1 1 1 1 1 2 3 5 4 6 7 7 6 6 6 6 6 7 7 7 7
3 3 2 2 2 1 1 1 1 0 0 1 1 1 1 1 1 1 1 1 1 1 1 1 1 1 1 2 3 2 2 5 6 7 7 7 6 6 6 6 6 6 5
2 3 2 2 2 2 1 1 1 1 1 1 1 1 1 1 1 1 1 1 1 1 1 0 0 1 1 1 2 1 1 5 6 7 7 7 7 6 6 6 6 6 5
2 2 2 2 2 1 1 1 1 1 1 0 1 0 1 1 1 1 1 1 1 1 1 1 1 1 1 1 1 1 1 3 3 7 7 7 7 7 6 6 6 5 5
2 2 2 2 3 2 2 1 1 1 1 0 1 1 1 1 1 1 1 1 1 1 0 1 1 1 0 0 1 2 1 1 2 5 7 7 7 7 7 7 6 5 5
2 2 2 2 2 1 1 1 1 0 0 0 0 0 1 1 1 1 1 1 1 2 0 1 1 1 0 0 0 2 2 1 1 3 6 6 7 7 8 8 8 7 7
2 2 2 1 1 1 0 0 1 1 1 0 0 0 0 0 1 1 1 1 1 1 1 1 1 0 0 1 0 1 2 1 1 1 2 3 5 7 7 8 8 8 8
2 1 1 1 1 1 0 0 1 1 1 1 0 0 0 1 1 0 1 1 1 1 1 1 1 1 0 0 1 1 2 1 2 1 1 2 3 3 4 5 7 8 8
1 1 1 1 1 0 2 2 1 0 0 1 1 1 2 2 2 2 1 0 1 1 1 1 1 1 1 1 1 2 1 1 2 1 1 2 1 2 2 3 7 9 10
1 1 1 1 1 1 1 2 1 1 1 1 1 1 2 1 2 1 1 2 2 2 2 2 2 2 1 1 2 2 2 2 3 2 2 2 1 1 2 3 8 9 9
2 1 1 1 2 2 2 1 2 2 2 2 2 2 1 0 0 1 2 1 1 0 1 1 1 2 2 2 2 2 3 3 3 2 1 2 1 1 1 1 4 8 8
1 1 1 1 2 2 3 2 2 3 2 2 2 1 1 2 1 1 1 1 1 0 1 1 1 2 3 3 2 1 2 2 2 2 1 1 2 1 1 1 2 6 7
2 1 1 1 1 2 3 3 2 3 2 2 2 2 2 2 2 2 2 1 1 1 1 0 1 2 3 3 3 3 2 2 2 2 1 1 1 1 2 1 1 2 3
Wind_Direction
103 94 68 75 53 157 165 147 167 176 193 198 150 133 137 139 140 137 143 162 164 169 178 183 188 190 190 195 194 192 194 195 193 191 189 190 190 185 183 183 184 185 185
99 98 103 87 21 358 9 117 168 182 185 37 82 104 147 138 142 146 154 166 176 178 184 189 190 194 197 198 195 196 198 197 198 198 197 196 191 188 187 185 187 187 186
127 140 149 144 182 210 160 135 126 173 183 184 174 188 173 175 157 161 159 161 172 184 187 190 192 196 202 203 200 200 203 203 204 203 204 202 196 193 191 190 191 192 190
125 142 141 126 217 178 149 154 116 58 31 118 183 204 180 177 189 179 166 167 172 177 188 192 191 197 202 202 201 203 209 210 211 209 208 207 201 197 196 195 195 194 192
99 99 111 116 237 137 124 119 107 150 229 239 238 216 189 190 207 194 183 175 174 170 174 187 190 196 200 199 200 206 213 214 216 216 213 208 202 198 198 199 199 197 198
109 120 129 91 349 90 78 40 51 24 256 255 270 231 185 197 201 176 198 182 179 181 177 172 179 197 201 202 203 210 215 217 217 214 212 207 201 198 199 201 201 204 208
126 112 72 120 90 108 124 120 73 276 269 263 276 284 234 197 187 175 193 188 196 191 167 164 176 179 192 209 212 212 214 214 211 208 207 202 197 199 200 201 204 209 211
142 137 117 92 100 102 125 264 241 233 256 228 228 253 228 212 292 192 182 187 200 187 183 182 185 179 186 184 205 208 211 210 206 199 196 200 200 199 202 205 206 208 210
139 119 131 120 259 182 178 236 246 264 266 275 241 210 176 194 194 191 198 182 171 185 177 163 175 177 188 179 181 198 208 210 207 204 203 200 196 200 205 207 210 210 213
161 158 145 156 250 256 174 249 204 285 276 275 272 256 260 148 180 191 233 201 189 175 177 180 183 186 178 154 152 162 193 202 205 207 206 204 203 204 207 212 212 212 214
168 164 154 167 168 138 182 308 322 301 288 280 278 283 286 258 238 194 214 225 227 188 172 176 186 183 167 154 146 154 173 184 193 199 201 202 203 209 213 215 215 213 216
165 163 147 148 155 156 191 233 259 275 293 296 294 283 285 302 260 199 229 226 216 225 178 178 185 173 166 157 175 159 167 174 191 200 201 202 202 208 213 216 217 216 216
152 153 145 147 166 165 173 206 237 265 267 291 293 289 292 286 299 259 231 240 237 219 188 196 184 161 172 145 142 155 173 179 191 201 203 203 208 212 216 218 220 220 219
147 143 141 157 173 179 201 216 237 221 212 269 278 279 283 282 280 264 244 248 265 245 190 201 161 159 162 133 147 169 176 183 193 200 205 208 211 213 216 219 220 220 217
145 139 150 161 167 168 200 222 245 242 180 232 263 272 274 270 277 281 284 264 248 265 255 215 170 151 141 126 154 178 180 184 191 201 203 205 209 212 214 214 213 213 210
121 151 164 165 173 175 195 225 240 193 192 229 242 301 306 299 297 292 291 293 268 255 273 261 212 155 126 140 155 180 190 177 194 200 202 201 206 210 212 209 204 203 201
151 166 168 173 188 182 190 219 251 212 215 259 286 231 245 269 308 318 314 312 305 292 288 308 357 70 107 117 132 220 197 176 187 197 198 196 198 201 202 196 195 194 193
173 186 185 191 201 187 189 208 246 253 195 199 289 302 293 282 290 302 313 317 312 296 233 258 302 324 343 133 217 255 260 222 192 187 192 194 192 194 195 192 190 191 194
181 191 201 206 211 190 192 199 185 250 240 214 225 263 293 313 315 318 319 316 309 312 323 266 267 274 281 278 13 298 297 292 248 177 191 200 203 202 201 197 194 195 198
189 191 202 205 205 208 202 214 194 208 222 242 337 23 14 41 316 314 297 307 320 315 300 279 253 269 294 324 43 302 302 285 271 208 181 193 205 209 208 205 203 199 201
191 187 192 204 201 219 249 279 235 184 212 213 196 189 173 140 113 53 357 6 351 328 304 292 264 260 288 303 278 277 288 293 289 276 211 206 189 193 205 210 208 205 205
167 188 200 196 207 312 51 70 43 327 275 249 244 232 207 169 163 176 207 219 229 248 271 280 272 259 285 293 303 294 304 303 291 303 308 280 203 189 200 201 199 201 206
200 220 207 152 142 135 62 51 26 240 252 254 274 277 274 187 140 204 238 221 225 238 228 239 276 292 287 291 301 296 296 292 281 267 273 274 273 255 227 211 191 196 202
206 226 217 186 180 179 189 213 274 218 236 245 239 243 236 204 256 281 239 207 209 232 233 220 270 297 294 291 278 268 273 277 268 260 230 254 267 263 296 148 189 191 198
208 232 226 196 191 186 192 211 254 239 224 238 232 246 225 175 229 256 235 224 210 227 204 172 245 268 267 269 272 276 270 273 273 265 254 245 267 274 285 223 202 198 201
213 227 227 203 191 187 186 199 236 254 231 226 214 198 181 189 197 211 226 225 218 246 256 310 282 262 252 245 235 232 254 268 274 273 246 230 261 286 292 271 206 193 210